This is the latest recevied weather packets stored in our database for station/object KQ4DLB-13. If no packets are shown the sender has not sent any weather packets the latest 10 day(s).
| Time | Temp. | Humidity | Pressure | Rain* | Wind** | Luminosity | Snow |
|---|---|---|---|---|---|---|---|
| 1777412103 | 24.44° C | 79% | 988.3 hPa | 0 mm | - | - | - |
| 1777411803 | 25° C | 77% | 988.4 hPa | 0 mm | - | - | - |
| 1777411502 | 25° C | 75% | 988.4 hPa | 0 mm | - | - | - |
| 1777411202 | 25° C | 76% | 988.6 hPa | 0 mm | - | - | - |
| 1777410903 | 25.56° C | 75% | 988.4 hPa | 0 mm | - | 103 W/m² | - |
| 1777410603 | 25.56° C | 73% | 988.2 hPa | 0 mm | - | 129 W/m² | - |
| 1777410302 | 26.11° C | 72% | 988.3 hPa | 0 mm | - | 166 W/m² | - |
| 1777410002 | 26.11° C | 71% | 988.4 hPa | 0 mm | - | 209 W/m² | - |
| 1777409702 | 26.11° C | 70% | 988.5 hPa | 0 mm | - | 247 W/m² | - |
| 1777409402 | 26.67° C | 70% | 988.5 hPa | 0 mm | - | 296 W/m² | - |
| 1777409102 | 26.67° C | 69% | 988.4 hPa | 0 mm | - | 356 W/m² | - |
| 1777408803 | 26.67° C | 69% | 988.4 hPa | 0 mm | - | 344 W/m² | - |
| 1777408503 | 26.67° C | 69% | 988.7 hPa | 0 mm | - | 384 W/m² | - |
| 1777408202 | 26.67° C | 69% | 989 hPa | 0 mm | - | 348 W/m² | - |
| 1777407902 | 27.22° C | 69% | 989.3 hPa | 0 mm | - | 442 W/m² | - |
| 1777407602 | 27.22° C | 68% | 989.5 hPa | 0 mm | - | 502 W/m² | - |
| 1777407302 | 27.22° C | 69% | 989.6 hPa | 0 mm | - | 493 W/m² | - |
| 1777407002 | 27.22° C | 67% | 989.6 hPa | 0 mm | - | 457 W/m² | - |
| 1777406702 | 27.22° C | 67% | 989.9 hPa | 0 mm | - | 723 W/m² | - |
| 1777406402 | 27.22° C | 68% | 990 hPa | 0 mm | - | 569 W/m² | - |
| 1777406102 | 27.22° C | 68% | 990.2 hPa | 0 mm | - | 639 W/m² | - |
| 1777405802 | 26.67° C | 67% | 990.3 hPa | 0 mm | - | 765 W/m² | - |
| 1777405502 | 26.67° C | 68% | 990.4 hPa | 0 mm | - | 638 W/m² | - |
| 1777405202 | 26.67° C | 68% | 990.6 hPa | 0 mm | - | 602 W/m² | - |
| 1777404902 | 26.67° C | 69% | 990.6 hPa | 0 mm | - | 651 W/m² | - |
* Rain latest hour (hover to see other rain measurements)
** Current wind speed in m/s (hover to see current wind gust speed)